Year,Month,Day,Hour,Minute,Value (Times are PST for temperature in C)
2020,01,31,00,00,6.50
2020,01,31,00,01,6.60
2020,01,31,00,02,6.60
2020,01,31,00,03,6.60
2020,01,31,00,04,6.60
2020,01,31,00,05,6.60
2020,01,31,00,06,6.60
2020,01,31,00,07,6.60
2020,01,31,00,08,6.60
2020,01,31,00,09,6.60
2020,01,31,00,10,6.60
2020,01,31,00,11,6.60
2020,01,31,00,12,6.60
2020,01,31,00,13,6.60
2020,01,31,00,14,6.60
2020,01,31,00,15,6.50
2020,01,31,00,16,6.50
2020,01,31,00,17,6.50
2020,01,31,00,18,6.50
2020,01,31,00,19,6.50
2020,01,31,00,20,6.50
2020,01,31,00,21,6.50
2020,01,31,00,22,6.50
2020,01,31,00,23,6.50
2020,01,31,00,24,6.50
2020,01,31,00,25,6.50
2020,01,31,00,26,6.50
2020,01,31,00,27,6.50
2020,01,31,00,28,6.50
2020,01,31,00,29,6.50
2020,01,31,00,30,6.50
2020,01,31,00,31,6.60
2020,01,31,00,32,6.60
2020,01,31,00,33,6.60
2020,01,31,00,34,6.60
2020,01,31,00,35,6.60
2020,01,31,00,36,6.60
2020,01,31,00,37,6.60
2020,01,31,00,38,6.60
2020,01,31,00,39,6.60
2020,01,31,00,40,6.60
2020,01,31,00,41,6.60
2020,01,31,00,42,6.60
2020,01,31,00,43,6.60
2020,01,31,00,44,6.60
2020,01,31,00,45,6.60
2020,01,31,00,46,6.60
2020,01,31,00,47,6.60
2020,01,31,00,48,6.60
2020,01,31,00,49,6.60
2020,01,31,00,50,6.60
2020,01,31,00,51,6.60
2020,01,31,00,52,6.70
2020,01,31,00,53,6.70
2020,01,31,00,54,6.70
2020,01,31,00,55,6.70
2020,01,31,00,56,6.70
2020,01,31,00,57,6.70
2020,01,31,00,58,6.70
2020,01,31,00,59,6.70
2020,01,31,01,00,6.70
2020,01,31,01,01,6.70
2020,01,31,01,02,6.70
2020,01,31,01,03,6.70
2020,01,31,01,04,6.70
2020,01,31,01,05,6.70
2020,01,31,01,06,6.70
2020,01,31,01,07,6.70
2020,01,31,01,08,6.70
2020,01,31,01,09,6.70
2020,01,31,01,10,6.70
2020,01,31,01,11,6.70
2020,01,31,01,12,6.70
2020,01,31,01,13,6.70
2020,01,31,01,14,6.70
2020,01,31,01,15,6.70
2020,01,31,01,16,6.70
2020,01,31,01,17,6.60
2020,01,31,01,18,6.60
2020,01,31,01,19,6.60
2020,01,31,01,20,6.60
2020,01,31,01,21,6.60
2020,01,31,01,22,6.60
2020,01,31,01,23,6.70
2020,01,31,01,24,6.70
2020,01,31,01,25,6.70
2020,01,31,01,26,6.60
2020,01,31,01,27,6.70
2020,01,31,01,28,6.60
2020,01,31,01,29,6.70
2020,01,31,01,30,6.60
2020,01,31,01,31,6.70
2020,01,31,01,32,6.70
2020,01,31,01,33,6.70
2020,01,31,01,34,6.70
2020,01,31,01,35,6.70
2020,01,31,01,36,6.70
2020,01,31,01,37,6.70
2020,01,31,01,38,6.70
2020,01,31,01,39,6.70
2020,01,31,01,40,6.70
2020,01,31,01,41,6.70
2020,01,31,01,42,6.70
2020,01,31,01,43,6.70
2020,01,31,01,44,6.70
2020,01,31,01,45,6.70
2020,01,31,01,46,6.70
2020,01,31,01,47,6.70
2020,01,31,01,48,6.70
2020,01,31,01,49,6.70
2020,01,31,01,50,6.70
2020,01,31,01,51,6.70
2020,01,31,01,52,6.70
2020,01,31,01,53,6.70
2020,01,31,01,54,6.70
2020,01,31,01,55,6.70
2020,01,31,01,56,6.70
2020,01,31,01,57,6.70
2020,01,31,01,58,6.70
2020,01,31,01,59,6.70
2020,01,31,02,00,6.70
2020,01,31,02,01,6.70
2020,01,31,02,02,6.70
2020,01,31,02,03,6.70
2020,01,31,02,04,6.70
2020,01,31,02,05,6.70
2020,01,31,02,06,6.70
2020,01,31,02,07,6.70
2020,01,31,02,08,6.70
2020,01,31,02,09,6.70
2020,01,31,02,10,6.70
2020,01,31,02,11,6.70
2020,01,31,02,12,6.70
2020,01,31,02,13,6.70
2020,01,31,02,14,6.70
2020,01,31,02,15,6.70
2020,01,31,02,16,6.70
2020,01,31,02,17,6.70
2020,01,31,02,18,6.70
2020,01,31,02,19,6.70
2020,01,31,02,20,6.70
2020,01,31,02,21,6.70
2020,01,31,02,22,6.70
2020,01,31,02,23,6.70
2020,01,31,02,24,6.70
2020,01,31,02,25,6.70
2020,01,31,02,26,6.70
2020,01,31,02,27,6.80
2020,01,31,02,28,6.80
2020,01,31,02,29,6.80
2020,01,31,02,30,6.80
2020,01,31,02,31,6.80
2020,01,31,02,32,6.80
2020,01,31,02,33,6.80
2020,01,31,02,34,6.80
2020,01,31,02,35,6.80
2020,01,31,02,36,6.80
2020,01,31,02,37,6.80
2020,01,31,02,38,6.80
2020,01,31,02,39,6.80
2020,01,31,02,40,6.80
2020,01,31,02,41,6.80
2020,01,31,02,42,6.80
2020,01,31,02,43,6.80
2020,01,31,02,44,6.80
2020,01,31,02,45,6.80
2020,01,31,02,46,6.80
2020,01,31,02,47,6.80
2020,01,31,02,48,6.80
2020,01,31,02,49,6.80
2020,01,31,02,50,6.80
2020,01,31,02,51,6.80
2020,01,31,02,52,6.80
2020,01,31,02,53,6.80
2020,01,31,02,54,6.80
2020,01,31,02,55,6.80
2020,01,31,02,56,6.80
2020,01,31,02,57,6.80
2020,01,31,02,58,6.80
2020,01,31,02,59,6.80
2020,01,31,03,00,6.80
2020,01,31,03,01,6.80
2020,01,31,03,02,6.80
2020,01,31,03,03,6.80
2020,01,31,03,04,6.80
2020,01,31,03,05,6.80
2020,01,31,03,06,6.80
2020,01,31,03,07,6.80
2020,01,31,03,08,6.80
2020,01,31,03,09,6.80
2020,01,31,03,10,6.80
2020,01,31,03,11,6.90
2020,01,31,03,12,6.90
2020,01,31,03,13,6.90
2020,01,31,03,14,6.90
2020,01,31,03,15,6.90
2020,01,31,03,16,6.80
2020,01,31,03,17,6.80
2020,01,31,03,18,6.80
2020,01,31,03,19,6.80
2020,01,31,03,20,6.80
2020,01,31,03,21,6.80
2020,01,31,03,22,6.80
2020,01,31,03,23,6.80
2020,01,31,03,24,6.80
2020,01,31,03,25,6.80
2020,01,31,03,26,6.80
2020,01,31,03,27,6.90
2020,01,31,03,28,6.90
2020,01,31,03,29,6.90
2020,01,31,03,30,6.90
2020,01,31,03,31,6.90
2020,01,31,03,32,6.90
2020,01,31,03,33,6.90
2020,01,31,03,34,6.90
2020,01,31,03,35,6.80
2020,01,31,03,36,6.90
2020,01,31,03,37,6.80
2020,01,31,03,38,6.80
2020,01,31,03,39,6.80
2020,01,31,03,40,6.80
2020,01,31,03,41,6.80
2020,01,31,03,42,6.80
2020,01,31,03,43,6.90
2020,01,31,03,44,6.90
2020,01,31,03,45,6.90
2020,01,31,03,46,6.90
2020,01,31,03,47,6.90
2020,01,31,03,48,6.90
2020,01,31,03,49,6.90
2020,01,31,03,50,6.90
2020,01,31,03,51,6.90
2020,01,31,03,52,6.90
2020,01,31,03,53,6.90
2020,01,31,03,54,6.90
2020,01,31,03,55,6.90
2020,01,31,03,56,6.90
2020,01,31,03,57,6.90
2020,01,31,03,58,6.90
2020,01,31,03,59,6.90
2020,01,31,04,00,6.90
2020,01,31,04,01,6.90
2020,01,31,04,02,6.90
2020,01,31,04,03,6.90
2020,01,31,04,04,6.90
2020,01,31,04,05,6.90
2020,01,31,04,06,6.90
2020,01,31,04,07,6.90
2020,01,31,04,08,6.90
2020,01,31,04,09,6.90
2020,01,31,04,10,6.90
2020,01,31,04,11,6.90
2020,01,31,04,12,6.90
2020,01,31,04,13,6.90
2020,01,31,04,14,6.90
2020,01,31,04,15,6.90
2020,01,31,04,16,6.90
2020,01,31,04,17,6.90
2020,01,31,04,18,6.90
2020,01,31,04,19,6.90
2020,01,31,04,20,6.90
2020,01,31,04,21,6.90
2020,01,31,04,22,6.90
2020,01,31,04,23,6.90
2020,01,31,04,24,6.90
2020,01,31,04,25,6.90
2020,01,31,04,26,6.90
2020,01,31,04,27,6.90
2020,01,31,04,28,6.90
2020,01,31,04,29,6.90
2020,01,31,04,30,6.90
2020,01,31,04,31,7.00
2020,01,31,04,32,6.90
2020,01,31,04,33,7.00
2020,01,31,04,34,7.00
2020,01,31,04,35,7.00
2020,01,31,04,36,7.00
2020,01,31,04,37,7.00
2020,01,31,04,38,7.00
2020,01,31,04,39,7.00
2020,01,31,04,40,7.00
2020,01,31,04,41,7.00
2020,01,31,04,42,7.00
2020,01,31,04,43,7.00
2020,01,31,04,44,7.00
2020,01,31,04,45,7.00
2020,01,31,04,46,7.00
2020,01,31,04,47,7.00
2020,01,31,04,48,7.00
2020,01,31,04,49,6.90
2020,01,31,04,50,7.00
2020,01,31,04,51,7.00
2020,01,31,04,52,7.00
2020,01,31,04,53,7.00
2020,01,31,04,54,7.00
2020,01,31,04,55,7.00
2020,01,31,04,56,7.00
2020,01,31,04,57,7.00
2020,01,31,04,58,7.00
2020,01,31,04,59,7.00
2020,01,31,05,00,7.00
2020,01,31,05,01,7.10
2020,01,31,05,02,7.10
2020,01,31,05,03,7.10
2020,01,31,05,04,7.10
2020,01,31,05,05,7.10
2020,01,31,05,06,7.10
2020,01,31,05,07,7.10
2020,01,31,05,08,7.10
2020,01,31,05,09,7.10
2020,01,31,05,10,7.10
2020,01,31,05,11,7.10
2020,01,31,05,12,7.10
2020,01,31,05,13,7.10
2020,01,31,05,14,7.10
2020,01,31,05,15,7.10
2020,01,31,05,16,7.10
2020,01,31,05,17,7.10
2020,01,31,05,18,7.10
2020,01,31,05,19,7.10
2020,01,31,05,20,7.10
2020,01,31,05,21,7.20
2020,01,31,05,22,7.10
2020,01,31,05,23,7.20
2020,01,31,05,24,7.20
2020,01,31,05,25,7.20
2020,01,31,05,26,7.20
2020,01,31,05,27,7.20
2020,01,31,05,28,7.20
2020,01,31,05,29,7.20
2020,01,31,05,30,7.20
2020,01,31,05,31,7.20
2020,01,31,05,32,7.20
2020,01,31,05,33,7.20
2020,01,31,05,34,7.20
2020,01,31,05,35,7.20
2020,01,31,05,36,7.20
2020,01,31,05,37,7.20
2020,01,31,05,38,7.20
2020,01,31,05,39,7.20
2020,01,31,05,40,7.20
2020,01,31,05,41,7.20
2020,01,31,05,42,7.20
2020,01,31,05,43,7.20
2020,01,31,05,44,7.30
2020,01,31,05,45,7.30
2020,01,31,05,46,7.30
2020,01,31,05,47,7.30
2020,01,31,05,48,7.30
2020,01,31,05,49,7.30
2020,01,31,05,50,7.20
2020,01,31,05,51,7.20
2020,01,31,05,52,7.20
2020,01,31,05,53,7.20
2020,01,31,05,54,7.20
2020,01,31,05,55,7.20
2020,01,31,05,56,7.20
2020,01,31,05,57,7.20
2020,01,31,05,58,7.20
2020,01,31,05,59,7.20
2020,01,31,06,00,7.20
2020,01,31,06,01,7.20
2020,01,31,06,02,7.20
2020,01,31,06,03,7.20
2020,01,31,06,04,7.20
2020,01,31,06,05,7.20
2020,01,31,06,06,7.30
2020,01,31,06,07,7.30
2020,01,31,06,08,7.30
2020,01,31,06,09,7.30
2020,01,31,06,10,7.30
2020,01,31,06,11,7.30
2020,01,31,06,12,7.30
2020,01,31,06,13,7.30
2020,01,31,06,14,7.30
2020,01,31,06,15,7.30
2020,01,31,06,16,7.30
2020,01,31,06,17,7.30
2020,01,31,06,18,7.30
2020,01,31,06,19,7.30
2020,01,31,06,20,7.30
2020,01,31,06,21,7.30
2020,01,31,06,22,7.30
2020,01,31,06,23,7.30
2020,01,31,06,24,7.40
2020,01,31,06,25,7.40
2020,01,31,06,26,7.50
2020,01,31,06,27,7.50
2020,01,31,06,28,7.50
2020,01,31,06,29,7.60
2020,01,31,06,30,7.60
2020,01,31,06,31,7.60
2020,01,31,06,32,7.50
2020,01,31,06,33,7.60
2020,01,31,06,34,7.60
2020,01,31,06,35,7.60
2020,01,31,06,36,7.60
2020,01,31,06,37,7.60
2020,01,31,06,38,7.60
2020,01,31,06,39,7.60
2020,01,31,06,40,7.60
2020,01,31,06,41,7.60
2020,01,31,06,42,7.70
2020,01,31,06,43,7.70
2020,01,31,06,44,7.70
2020,01,31,06,45,7.70
2020,01,31,06,46,7.70
2020,01,31,06,47,7.70
2020,01,31,06,48,7.70
2020,01,31,06,49,7.70
2020,01,31,06,50,7.70
2020,01,31,06,51,7.70
2020,01,31,06,52,7.70
2020,01,31,06,53,7.70
2020,01,31,06,54,7.80
2020,01,31,06,55,7.80
2020,01,31,06,56,7.80
2020,01,31,06,57,7.80
2020,01,31,06,58,7.80
2020,01,31,06,59,7.80
2020,01,31,07,00,7.80
2020,01,31,07,01,7.80
2020,01,31,07,02,7.80
2020,01,31,07,03,7.90
2020,01,31,07,04,7.90
2020,01,31,07,05,7.90
2020,01,31,07,06,7.80
2020,01,31,07,07,7.80
2020,01,31,07,08,7.80
2020,01,31,07,09,7.80
2020,01,31,07,10,7.80
2020,01,31,07,11,7.80
2020,01,31,07,12,7.80
2020,01,31,07,13,7.80
2020,01,31,07,14,7.90
2020,01,31,07,15,7.90
2020,01,31,07,16,7.90
2020,01,31,07,17,7.80
2020,01,31,07,18,7.80
2020,01,31,07,19,7.80
2020,01,31,07,20,7.80
2020,01,31,07,21,7.80
2020,01,31,07,22,7.80
2020,01,31,07,23,7.90
2020,01,31,07,24,7.90
2020,01,31,07,25,7.90
2020,01,31,07,26,7.90
2020,01,31,07,27,7.80
2020,01,31,07,28,7.80
2020,01,31,07,29,7.80
2020,01,31,07,30,7.80
2020,01,31,07,31,7.80
2020,01,31,07,32,7.80
2020,01,31,07,33,7.80
2020,01,31,07,34,7.80
2020,01,31,07,35,7.80
2020,01,31,07,36,7.80
2020,01,31,07,37,7.80
2020,01,31,07,38,7.80
2020,01,31,07,39,7.80
2020,01,31,07,40,7.80
2020,01,31,07,41,7.80
2020,01,31,07,42,7.80
2020,01,31,07,43,7.80
2020,01,31,07,44,7.80
2020,01,31,07,45,7.70
2020,01,31,07,46,7.70
2020,01,31,07,47,7.70
2020,01,31,07,48,7.70
2020,01,31,07,49,7.70
2020,01,31,07,50,7.80
2020,01,31,07,51,7.80
2020,01,31,07,52,7.80
2020,01,31,07,53,7.80
2020,01,31,07,54,7.80
2020,01,31,07,55,7.80
2020,01,31,07,56,7.80
2020,01,31,07,57,7.80
2020,01,31,07,58,7.90
2020,01,31,07,59,7.90
2020,01,31,08,00,7.90
2020,01,31,08,01,7.90
2020,01,31,08,02,7.90
2020,01,31,08,03,7.90
2020,01,31,08,04,7.90
2020,01,31,08,05,7.90
2020,01,31,08,06,7.90
2020,01,31,08,07,7.90
2020,01,31,08,08,7.90
2020,01,31,08,09,7.90
2020,01,31,08,10,7.90
2020,01,31,08,11,7.90
2020,01,31,08,12,7.90
2020,01,31,08,13,7.90
2020,01,31,08,14,8.00
2020,01,31,08,15,8.00
2020,01,31,08,16,8.00
2020,01,31,08,17,8.00
2020,01,31,08,18,8.00
2020,01,31,08,19,8.00
2020,01,31,08,20,8.00
2020,01,31,08,21,8.00
2020,01,31,08,22,8.00
2020,01,31,08,23,8.00
2020,01,31,08,24,8.00
2020,01,31,08,25,8.00
2020,01,31,08,26,7.90
2020,01,31,08,27,7.90
2020,01,31,08,28,7.90
2020,01,31,08,29,7.90
2020,01,31,08,30,7.90
2020,01,31,08,31,7.90
2020,01,31,08,32,7.90
2020,01,31,08,33,7.90
2020,01,31,08,34,7.90
2020,01,31,08,35,7.90
2020,01,31,08,36,7.90
2020,01,31,08,37,7.90
2020,01,31,08,38,7.90
2020,01,31,08,39,7.90
2020,01,31,08,40,7.90
2020,01,31,08,41,7.90
2020,01,31,08,42,7.90
2020,01,31,08,43,7.90
2020,01,31,08,44,7.90
2020,01,31,08,45,7.90
2020,01,31,08,46,7.90
2020,01,31,08,47,7.90
2020,01,31,08,48,7.90
2020,01,31,08,49,7.90
2020,01,31,08,50,7.90
2020,01,31,08,51,7.90
2020,01,31,08,52,7.90
2020,01,31,08,53,7.90
2020,01,31,08,54,8.00
2020,01,31,08,55,8.00
2020,01,31,08,56,7.90
2020,01,31,08,57,7.90
2020,01,31,08,58,7.90
2020,01,31,08,59,7.90
2020,01,31,09,00,7.90
2020,01,31,09,01,8.00
2020,01,31,09,02,8.00
2020,01,31,09,03,8.00
2020,01,31,09,04,8.00
2020,01,31,09,05,8.00
2020,01,31,09,06,8.00
2020,01,31,09,07,8.00
2020,01,31,09,08,8.00
2020,01,31,09,09,8.00
2020,01,31,09,10,8.00
2020,01,31,09,11,8.00
2020,01,31,09,12,7.90
2020,01,31,09,13,7.90
2020,01,31,09,14,7.90
2020,01,31,09,15,8.00
2020,01,31,09,16,8.00
2020,01,31,09,17,8.00
2020,01,31,09,18,8.00
2020,01,31,09,19,8.00
2020,01,31,09,20,8.00
2020,01,31,09,21,8.00
2020,01,31,09,22,8.00
2020,01,31,09,23,8.00
2020,01,31,09,24,8.10
2020,01,31,09,25,8.10
2020,01,31,09,26,8.00
2020,01,31,09,27,8.00
2020,01,31,09,28,8.00
2020,01,31,09,29,8.00
2020,01,31,09,30,8.00
2020,01,31,09,31,8.00
2020,01,31,09,32,8.00
2020,01,31,09,33,8.00
2020,01,31,09,34,8.00
2020,01,31,09,35,8.00
2020,01,31,09,36,8.00
2020,01,31,09,37,8.10
2020,01,31,09,38,8.10
2020,01,31,09,39,8.10
2020,01,31,09,40,8.10
2020,01,31,09,41,8.20
2020,01,31,09,42,8.20
2020,01,31,09,43,8.20
2020,01,31,09,44,8.20
2020,01,31,09,45,8.20
2020,01,31,09,46,8.30
2020,01,31,09,47,8.30
2020,01,31,09,48,8.30
2020,01,31,09,49,8.30
2020,01,31,09,50,8.20
2020,01,31,09,51,8.20
2020,01,31,09,52,8.20
2020,01,31,09,53,8.20
2020,01,31,09,54,8.20
2020,01,31,09,55,8.20
2020,01,31,09,56,8.20
2020,01,31,09,57,8.20
2020,01,31,09,58,8.20
2020,01,31,09,59,8.20
2020,01,31,10,00,8.30
2020,01,31,10,01,8.30
2020,01,31,10,02,8.30
2020,01,31,10,03,8.30
2020,01,31,10,04,8.30
2020,01,31,10,05,8.30
2020,01,31,10,06,8.30
2020,01,31,10,07,8.30
2020,01,31,10,08,8.30
2020,01,31,10,09,8.30
2020,01,31,10,10,8.30
2020,01,31,10,11,8.30
2020,01,31,10,12,8.30
2020,01,31,10,13,8.30
2020,01,31,10,14,8.30
2020,01,31,10,15,8.40
2020,01,31,10,16,8.40
2020,01,31,10,17,8.40
2020,01,31,10,18,8.40
2020,01,31,10,19,8.40
2020,01,31,10,20,8.50
2020,01,31,10,21,8.50
2020,01,31,10,22,8.50
2020,01,31,10,23,8.50
2020,01,31,10,24,8.50
2020,01,31,10,25,8.50
2020,01,31,10,26,8.60
2020,01,31,10,27,8.60
2020,01,31,10,28,8.60
2020,01,31,10,29,8.60
2020,01,31,10,30,8.60
2020,01,31,10,31,8.60
2020,01,31,10,32,8.60
2020,01,31,10,33,8.60
2020,01,31,10,34,8.60
2020,01,31,10,35,8.70
2020,01,31,10,36,8.70
2020,01,31,10,37,8.70
2020,01,31,10,38,8.70
2020,01,31,10,39,8.70
2020,01,31,10,40,8.70
2020,01,31,10,41,8.70
2020,01,31,10,42,8.70
2020,01,31,10,43,8.70
2020,01,31,10,44,8.70
2020,01,31,10,45,8.70
2020,01,31,10,46,8.70
2020,01,31,10,47,8.70
2020,01,31,10,48,8.70
2020,01,31,10,49,8.70
2020,01,31,10,50,8.70
2020,01,31,10,51,8.70
2020,01,31,10,52,8.80
2020,01,31,10,53,8.80
2020,01,31,10,54,8.80
2020,01,31,10,55,8.80
2020,01,31,10,56,8.80
2020,01,31,10,57,8.80
2020,01,31,10,58,8.80
2020,01,31,10,59,8.80
2020,01,31,11,00,8.80
2020,01,31,11,01,8.80
2020,01,31,11,02,8.80
2020,01,31,11,03,8.80
2020,01,31,11,04,8.80
2020,01,31,11,05,8.80
2020,01,31,11,06,8.80
2020,01,31,11,07,8.80
2020,01,31,11,08,8.80
2020,01,31,11,09,8.80
2020,01,31,11,10,8.90
2020,01,31,11,11,8.90
2020,01,31,11,12,8.90
2020,01,31,11,13,8.90
2020,01,31,11,14,8.90
2020,01,31,11,15,8.90
2020,01,31,11,16,8.90
2020,01,31,11,17,8.90
2020,01,31,11,18,8.90
2020,01,31,11,19,8.90
2020,01,31,11,20,9.00
2020,01,31,11,21,9.00
2020,01,31,11,22,9.10
2020,01,31,11,23,9.10
2020,01,31,11,24,9.20
2020,01,31,11,25,9.30
2020,01,31,11,26,9.50
2020,01,31,11,27,9.70
2020,01,31,11,28,9.80
2020,01,31,11,29,10.00
2020,01,31,11,30,10.10
2020,01,31,11,31,10.20
2020,01,31,11,32,10.30
2020,01,31,11,33,10.50
2020,01,31,11,34,10.60
2020,01,31,11,35,10.70
2020,01,31,11,36,10.80
2020,01,31,11,37,10.80
2020,01,31,11,38,10.90
2020,01,31,11,39,11.00
2020,01,31,11,40,11.20
2020,01,31,11,41,11.30
2020,01,31,11,42,11.40
2020,01,31,11,43,11.40
2020,01,31,11,44,11.50
2020,01,31,11,45,11.60
2020,01,31,11,46,11.60
2020,01,31,11,47,11.70
2020,01,31,11,48,11.70
2020,01,31,11,49,11.80
2020,01,31,11,50,11.80
2020,01,31,11,51,11.90
2020,01,31,11,52,12.00
2020,01,31,11,53,12.10
2020,01,31,11,54,12.10
2020,01,31,11,55,12.20
2020,01,31,11,56,12.30
2020,01,31,11,57,12.30
2020,01,31,11,58,12.40
2020,01,31,11,59,12.60
2020,01,31,12,00,12.70
2020,01,31,12,01,12.80
2020,01,31,12,02,12.80
2020,01,31,12,03,12.90
2020,01,31,12,04,12.90
2020,01,31,12,05,13.00
2020,01,31,12,06,13.10
2020,01,31,12,07,13.20
2020,01,31,12,08,13.30
2020,01,31,12,09,13.30
2020,01,31,12,10,13.30
2020,01,31,12,11,13.40
2020,01,31,12,12,13.40
2020,01,31,12,13,13.50
2020,01,31,12,14,13.50
2020,01,31,12,15,13.50
2020,01,31,12,16,13.50
2020,01,31,12,17,13.50
2020,01,31,12,18,13.60
2020,01,31,12,19,13.60
2020,01,31,12,20,13.60
2020,01,31,12,21,13.70
2020,01,31,12,22,13.70
2020,01,31,12,23,13.70
2020,01,31,12,24,13.70
2020,01,31,12,25,13.70
2020,01,31,12,26,13.70
2020,01,31,12,27,13.70
2020,01,31,12,28,13.70
2020,01,31,12,29,13.70
2020,01,31,12,30,13.70
2020,01,31,12,31,13.70
2020,01,31,12,32,13.70
2020,01,31,12,33,13.70
2020,01,31,12,34,13.70
2020,01,31,12,35,13.70
2020,01,31,12,36,13.70
2020,01,31,12,37,13.80
2020,01,31,12,38,13.80
2020,01,31,12,39,13.80
2020,01,31,12,40,13.80
2020,01,31,12,41,13.90
2020,01,31,12,42,13.90
2020,01,31,12,43,13.90
2020,01,31,12,44,14.00
2020,01,31,12,45,14.00
2020,01,31,12,46,14.10
2020,01,31,12,47,14.10
2020,01,31,12,48,14.10
2020,01,31,12,49,14.10
2020,01,31,12,50,14.10
2020,01,31,12,51,14.10
2020,01,31,12,52,14.10
2020,01,31,12,53,14.10
2020,01,31,12,54,14.20
2020,01,31,12,55,14.20
2020,01,31,12,56,14.20
2020,01,31,12,57,14.20
2020,01,31,12,58,14.20
2020,01,31,12,59,14.20
2020,01,31,13,00,14.20
2020,01,31,13,01,14.20
2020,01,31,13,02,14.30
2020,01,31,13,03,14.30
2020,01,31,13,04,14.40
2020,01,31,13,05,14.40
2020,01,31,13,06,14.50
2020,01,31,13,07,14.40
2020,01,31,13,08,14.40
2020,01,31,13,09,14.40
2020,01,31,13,10,14.30
2020,01,31,13,11,14.30
2020,01,31,13,12,14.30
2020,01,31,13,13,14.30
2020,01,31,13,14,14.30
2020,01,31,13,15,14.30
2020,01,31,13,16,14.30
2020,01,31,13,17,14.40
2020,01,31,13,18,14.40
2020,01,31,13,19,14.40
2020,01,31,13,20,14.40
2020,01,31,13,21,14.40
2020,01,31,13,22,14.40
2020,01,31,13,23,14.40
2020,01,31,13,24,14.40
2020,01,31,13,25,14.40
2020,01,31,13,26,14.40
2020,01,31,13,27,14.50
2020,01,31,13,28,14.50
2020,01,31,13,29,14.50
2020,01,31,13,30,14.60
2020,01,31,13,31,14.60
2020,01,31,13,32,14.60
2020,01,31,13,33,14.60
2020,01,31,13,34,14.60
2020,01,31,13,35,14.60
2020,01,31,13,36,14.50
2020,01,31,13,37,14.50
2020,01,31,13,38,14.50
2020,01,31,13,39,14.40
2020,01,31,13,40,14.40
2020,01,31,13,41,14.40
2020,01,31,13,42,14.40
2020,01,31,13,43,14.40
2020,01,31,13,44,14.40
2020,01,31,13,45,14.40
2020,01,31,13,46,14.40
2020,01,31,13,47,14.40
2020,01,31,13,48,14.40
2020,01,31,13,49,14.40
2020,01,31,13,50,14.40
2020,01,31,13,51,14.40
2020,01,31,13,52,14.40
2020,01,31,13,53,14.40
2020,01,31,13,54,14.40
2020,01,31,13,55,14.40
2020,01,31,13,56,14.30
2020,01,31,13,57,14.30
2020,01,31,13,58,14.20
2020,01,31,13,59,14.20
2020,01,31,14,00,14.10
2020,01,31,14,01,14.10
2020,01,31,14,02,14.10
2020,01,31,14,03,14.00
2020,01,31,14,04,13.90
2020,01,31,14,05,13.90
2020,01,31,14,06,13.80
2020,01,31,14,07,13.80
2020,01,31,14,08,13.70
2020,01,31,14,09,13.70
2020,01,31,14,10,13.60
2020,01,31,14,11,13.50
2020,01,31,14,12,13.50
2020,01,31,14,13,13.40
2020,01,31,14,14,13.40
2020,01,31,14,15,13.40
2020,01,31,14,16,13.40
2020,01,31,14,17,13.40
2020,01,31,14,18,13.40
2020,01,31,14,19,13.40
2020,01,31,14,20,13.40
2020,01,31,14,21,13.30
2020,01,31,14,22,13.30
2020,01,31,14,23,13.30
2020,01,31,14,24,13.30
2020,01,31,14,25,13.30
2020,01,31,14,26,13.30
2020,01,31,14,27,13.20
2020,01,31,14,28,13.20
2020,01,31,14,29,13.20
2020,01,31,14,30,13.20
2020,01,31,14,31,13.30
2020,01,31,14,32,13.30
2020,01,31,14,33,13.30
2020,01,31,14,34,13.30
2020,01,31,14,35,13.20
2020,01,31,14,36,13.20
2020,01,31,14,37,13.20
2020,01,31,14,38,13.20
2020,01,31,14,39,13.30
2020,01,31,14,40,13.30
2020,01,31,14,41,13.30
2020,01,31,14,42,13.30
2020,01,31,14,43,13.30
2020,01,31,14,44,13.30
2020,01,31,14,45,13.30
2020,01,31,14,46,13.30
2020,01,31,14,47,13.30
2020,01,31,14,48,13.30
2020,01,31,14,49,13.30
2020,01,31,14,50,13.30
2020,01,31,14,51,13.30
2020,01,31,14,52,13.30
2020,01,31,14,53,13.30
2020,01,31,14,54,13.30
2020,01,31,14,55,13.30
2020,01,31,14,56,13.30
2020,01,31,14,57,13.30
2020,01,31,14,58,13.30
2020,01,31,14,59,13.30
2020,01,31,15,00,13.30
2020,01,31,15,01,13.30
2020,01,31,15,02,13.30
2020,01,31,15,03,13.30
2020,01,31,15,04,13.30
2020,01,31,15,05,13.30
2020,01,31,15,06,13.40
2020,01,31,15,07,13.40
2020,01,31,15,08,13.40
2020,01,31,15,09,13.40
2020,01,31,15,10,13.50
2020,01,31,15,11,13.50
2020,01,31,15,12,13.50
2020,01,31,15,13,13.50
2020,01,31,15,14,13.50
2020,01,31,15,15,13.50
2020,01,31,15,16,13.50
2020,01,31,15,17,13.50
2020,01,31,15,18,13.50
2020,01,31,15,19,13.50
2020,01,31,15,20,13.50
2020,01,31,15,21,13.50
2020,01,31,15,22,13.60
2020,01,31,15,23,13.60
2020,01,31,15,24,13.60
2020,01,31,15,25,13.60
2020,01,31,15,26,13.60
2020,01,31,15,27,13.60
2020,01,31,15,28,13.70
2020,01,31,15,29,13.70
2020,01,31,15,30,13.70
2020,01,31,15,31,13.70
2020,01,31,15,32,13.70
2020,01,31,15,33,13.70
2020,01,31,15,34,13.70
2020,01,31,15,35,13.70
2020,01,31,15,36,13.70
2020,01,31,15,37,13.60
2020,01,31,15,38,13.60
2020,01,31,15,39,13.60
2020,01,31,15,40,13.70
2020,01,31,15,41,13.70
2020,01,31,15,42,13.70
2020,01,31,15,43,13.70
2020,01,31,15,44,13.60
2020,01,31,15,45,13.60
2020,01,31,15,46,13.60
2020,01,31,15,47,13.60
2020,01,31,15,48,13.60
2020,01,31,15,49,13.60
2020,01,31,15,50,13.60
2020,01,31,15,51,13.60
2020,01,31,15,52,13.70
2020,01,31,15,53,13.70
2020,01,31,15,54,13.70
2020,01,31,15,55,13.70
2020,01,31,15,56,13.70
2020,01,31,15,57,13.70
2020,01,31,15,58,13.60
2020,01,31,15,59,13.70
2020,01,31,16,00,13.70
2020,01,31,16,01,13.70
2020,01,31,16,02,13.70
2020,01,31,16,03,13.70
2020,01,31,16,04,13.70
2020,01,31,16,05,13.70
2020,01,31,16,06,13.80
2020,01,31,16,07,13.80
2020,01,31,16,08,13.80
2020,01,31,16,09,13.80
2020,01,31,16,10,13.80
2020,01,31,16,11,13.90
2020,01,31,16,12,13.90
2020,01,31,16,13,13.90
2020,01,31,16,14,13.90
2020,01,31,16,15,13.90
2020,01,31,16,16,13.90
2020,01,31,16,17,13.90
2020,01,31,16,18,14.00
2020,01,31,16,19,14.00
2020,01,31,16,20,14.10
2020,01,31,16,21,14.10
2020,01,31,16,22,14.10
2020,01,31,16,23,14.10
2020,01,31,16,24,14.10
2020,01,31,16,25,14.10
2020,01,31,16,26,14.10
2020,01,31,16,27,14.10
2020,01,31,16,28,14.10
2020,01,31,16,29,14.10
2020,01,31,16,30,14.10
2020,01,31,16,31,14.10
2020,01,31,16,32,14.10
2020,01,31,16,33,14.20
2020,01,31,16,34,14.20
2020,01,31,16,35,14.20
2020,01,31,16,36,14.20
2020,01,31,16,37,14.20
2020,01,31,16,38,14.20
2020,01,31,16,39,14.20
2020,01,31,16,40,14.20
2020,01,31,16,41,14.20
2020,01,31,16,42,14.20
2020,01,31,16,43,14.20
2020,01,31,16,44,14.20
2020,01,31,16,45,14.20
2020,01,31,16,46,14.20
2020,01,31,16,47,14.20
2020,01,31,16,48,14.20
2020,01,31,16,49,14.20
2020,01,31,16,50,14.20
2020,01,31,16,51,14.20
2020,01,31,16,52,14.20
2020,01,31,16,53,14.20
2020,01,31,16,54,14.20
2020,01,31,16,55,14.20
2020,01,31,16,56,14.20
2020,01,31,16,57,14.20
2020,01,31,16,58,14.30
2020,01,31,16,59,14.30
2020,01,31,17,00,14.30
2020,01,31,17,01,14.20
2020,01,31,17,02,14.20
2020,01,31,17,03,14.20
2020,01,31,17,04,14.20
2020,01,31,17,05,14.20
2020,01,31,17,06,14.20
2020,01,31,17,07,14.20
2020,01,31,17,08,14.20
2020,01,31,17,09,14.20
2020,01,31,17,10,14.20
2020,01,31,17,11,14.20
2020,01,31,17,12,14.20
2020,01,31,17,13,14.20
2020,01,31,17,14,14.20
2020,01,31,17,15,14.30
2020,01,31,17,16,14.30
2020,01,31,17,17,14.30
2020,01,31,17,18,14.30
2020,01,31,17,19,14.30
2020,01,31,17,20,14.20
2020,01,31,17,21,14.20
2020,01,31,17,22,14.20
2020,01,31,17,23,14.20
2020,01,31,17,24,14.30
2020,01,31,17,25,14.30
2020,01,31,17,26,14.30
2020,01,31,17,27,14.40
2020,01,31,17,28,14.50
2020,01,31,17,29,14.50
2020,01,31,17,30,14.60
2020,01,31,17,31,14.60
2020,01,31,17,32,14.70
2020,01,31,17,33,14.70
2020,01,31,17,34,14.70
2020,01,31,17,35,14.70
2020,01,31,17,36,14.70
2020,01,31,17,37,14.70
2020,01,31,17,38,14.70
2020,01,31,17,39,14.60
2020,01,31,17,40,14.60
2020,01,31,17,41,14.60
2020,01,31,17,42,14.60
2020,01,31,17,43,14.50
2020,01,31,17,44,14.50
2020,01,31,17,45,14.50
2020,01,31,17,46,14.60
2020,01,31,17,47,14.60
2020,01,31,17,48,14.60
2020,01,31,17,49,14.60